This is the latest recevied weather packets stored in our database for station/object K4CRS-13. If no packets are shown the sender has not sent any weather packets the latest 10 day(s).
| Time | Temp. | Humidity | Pressure | Rain* | Wind** | Luminosity | Snow |
|---|---|---|---|---|---|---|---|
| 1777846317 | 20.56° C | 41% | 1052.6 hPa | 0 mm | - | 315 W/m² | - |
| 1777846013 | 20.56° C | 39% | 1052.5 hPa | 0 mm | - | 333 W/m² | - |
| 1777845710 | 20.56° C | 39% | 1052.4 hPa | 0 mm | - | 350 W/m² | - |
| 1777845407 | 20.56° C | 38% | 1052.4 hPa | 0 mm | - | 369 W/m² | - |
| 1777845103 | 21.11° C | 38% | 1052.5 hPa | 0 mm | - | 387 W/m² | - |
| 1777844802 | 21.11° C | 38% | 1052.9 hPa | 0 mm | - | 403 W/m² | - |
| 1777844498 | 21.11° C | 38% | 1052.9 hPa | 0 mm | - | 421 W/m² | - |
| 1777844192 | 22.22° C | 37% | 1053.1 hPa | 0 mm | - | 437 W/m² | - |
| 1777843888 | 22.22° C | 38% | 1053.1 hPa | 0 mm | - | 454 W/m² | - |
| 1777843586 | 21.67° C | 38% | 1053 hPa | 0 mm | - | 471 W/m² | - |
| 1777843283 | 21.67° C | 38% | 1053 hPa | 0 mm | - | 486 W/m² | - |
| 1777842980 | 21.11° C | 43% | 1053.3 hPa | 0 mm | - | 503 W/m² | - |
| 1777842676 | 20.56° C | 40% | 1053.2 hPa | 0 mm | - | 520 W/m² | - |
| 1777842372 | 21.67° C | 42% | 1053.3 hPa | 0 mm | - | 533 W/m² | - |
| 1777842069 | 21.11° C | 37% | 1053.2 hPa | 0 mm | - | 548 W/m² | - |
| 1777841765 | 20.56° C | 41% | 1053.4 hPa | 0 mm | - | 561 W/m² | - |
| 1777841461 | 20° C | 42% | 1053.5 hPa | 0 mm | - | 577 W/m² | - |
| 1777841158 | 20.56° C | 37% | 1053.7 hPa | 0 mm | - | 591 W/m² | - |
| 1777840856 | 20.56° C | 38% | 1053.8 hPa | 0 mm | - | 606 W/m² | - |
| 1777840552 | 20.56° C | 41% | 1053.9 hPa | 0 mm | - | 620 W/m² | - |
| 1777840250 | 20.56° C | 36% | 1053.8 hPa | 0 mm | - | 633 W/m² | - |
| 1777839947 | 21.11° C | 40% | 1053.9 hPa | 0 mm | - | 647 W/m² | - |
| 1777839645 | 20.56° C | 38% | 1054.1 hPa | 0 mm | - | 657 W/m² | - |
| 1777839343 | 21.11° C | 36% | 1054.1 hPa | 0 mm | - | 668 W/m² | - |
| 1777839040 | 21.11° C | 42% | 1054.2 hPa | 0 mm | - | 683 W/m² | - |
* Rain latest hour (hover to see other rain measurements)
** Current wind speed in m/s (hover to see current wind gust speed)